This is the latest recevied weather packets stored in our database for station/object WX6HNX-4. If no packets are shown the sender has not sent any weather packets the latest 1 day(s).
| Time | Temp. | Humidity | Pressure | Rain* | Wind** | Luminosity | Snow |
|---|---|---|---|---|---|---|---|
| 1778011214 | 12.78° C | 85% | 1007.3 hPa | 0 mm | 1.79 m/s, 222° | - | - |
| 1778009834 | 12.22° C | 88% | 1007.5 hPa | 0 mm | 2.24 m/s, 236° | - | - |
| 1778009534 | 12.22° C | 88% | 1007.5 hPa | 0 mm | 2.24 m/s, 218° | - | - |
| 1778009234 | 12.22° C | 88% | 1007.4 hPa | 0 mm | 2.68 m/s, 219° | - | - |
| 1778008334 | 11.67° C | 90% | 1007.4 hPa | 0 mm | 2.24 m/s, 230° | - | - |
| 1778008035 | 11.67° C | 91% | 1007.4 hPa | 0 mm | 2.24 m/s, 232° | - | - |
| 1778006834 | 11.67° C | 92% | 1007.5 hPa | 0.25 mm | 2.24 m/s, 232° | - | - |
| 1778006234 | 11.11° C | 92% | 1007.4 hPa | 0.51 mm | 2.24 m/s, 234° | - | - |
| 1778005551 | 11.11° C | 93% | 1007.4 hPa | 0.51 mm | 2.68 m/s, 228° | - | - |
| 1778004652 | 10.56° C | 92% | 1007.4 hPa | 0.76 mm | 3.13 m/s, 226° | - | - |
| 1778002251 | 10.56° C | 92% | 1006.9 hPa | 0.25 mm | 3.13 m/s, 233° | - | - |
| 1778001651 | 10.56° C | 92% | 1006.9 hPa | 0.25 mm | 3.58 m/s, 236° | - | - |
| 1778001351 | 10.56° C | 92% | 1006.9 hPa | 0 mm | 3.13 m/s, 256° | - | - |
| 1778000635 | 10.56° C | 91% | 1006.8 hPa | 0 mm | 4.47 m/s, 241° | - | - |
| 1778000035 | 10.56° C | 91% | 1006.7 hPa | 0 mm | 2.68 m/s, 229° | - | - |
| 1777999434 | 10.56° C | 91% | 1006.6 hPa | 0 mm | 3.13 m/s, 233° | - | - |
| 1777998835 | 10.56° C | 91% | 1006.4 hPa | 0 mm | 3.13 m/s, 223° | - | - |
| 1777997635 | 10.56° C | 88% | 1006.2 hPa | 0 mm | 4.02 m/s, 226° | - | - |
| 1777996745 | 11.11° C | 86% | 1006 hPa | 0 mm | 4.47 m/s, 220° | - | - |
| 1777996445 | 11.11° C | 86% | 1005.9 hPa | 0 mm | 4.47 m/s, 219° | - | - |
| 1777995245 | 11.67° C | 86% | 1005.8 hPa | 0 mm | 3.13 m/s, 234° | - | - |
| 1777994344 | 11.11° C | 87% | 1005.6 hPa | 0 mm | 1.79 m/s, 245° | - | - |
| 1777993445 | 11.11° C | 88% | 1005.4 hPa | 0 mm | 2.24 m/s, 230° | - | - |
| 1777992098 | 11.11° C | 87% | 1005.3 hPa | 0 mm | 2.68 m/s, 233° | - | - |
| 1777991199 | 11.11° C | 88% | 1005.2 hPa | 0 mm | 1.79 m/s, 230° | - | - |
* Rain latest hour (hover to see other rain measurements)
** Current wind speed in m/s (hover to see current wind gust speed)